TimeMDT,TemperatureF,Dew PointF,Humidity,Sea Level PressureIn,VisibilityMPH,Wind Direction,Wind SpeedMPH,Gust SpeedMPH,PrecipitationIn,Events,Conditions,WindDirDegrees,DateUTC
12:53 AM,46.9,41.0,80,29.70,10.0,NW,4.6,-,0.00,,Overcast,320,2013-04-06 06:53:00
1:53 AM,45.0,42.1,90,29.72,10.0,West,8.1,-,0.01,Rain,Light Rain,280,2013-04-06 07:53:00
2:53 AM,46.0,41.0,83,29.70,10.0,NW,9.2,-,0.00,Rain,Light Rain,310,2013-04-06 08:53:00
3:53 AM,42.1,39.0,89,29.72,10.0,WSW,5.8,-,N/A,,Clear,240,2013-04-06 09:53:00
4:53 AM,39.9,37.9,93,29.74,10.0,WNW,3.5,-,N/A,,Clear,290,2013-04-06 10:53:00
5:53 AM,36.0,34.0,93,29.77,10.0,NW,6.9,-,N/A,,Clear,320,2013-04-06 11:53:00
6:19 AM,35.6,33.8,93,29.75,9.0,NNW,12.7,-,N/A,,Scattered Clouds,340,2013-04-06 12:19:00
6:28 AM,35.6,35.6,100,29.76,8.0,NNW,9.2,-,N/A,,Mostly Cloudy,330,2013-04-06 12:28:00
6:50 AM,37.4,35.6,93,29.76,5.0,NNW,13.8,-,N/A,,Overcast,340,2013-04-06 12:50:00
6:53 AM,37.0,35.1,93,29.79,4.0,NNW,12.7,-,N/A,,Overcast,330,2013-04-06 12:53:00
7:53 AM,36.0,35.1,97,29.82,5.0,North,10.4,-,N/A,,Overcast,350,2013-04-06 13:53:00
8:14 AM,35.6,33.8,93,29.79,8.0,North,12.7,-,N/A,,Overcast,360,2013-04-06 14:14:00
8:53 AM,37.0,35.1,93,29.83,10.0,North,9.2,-,N/A,,Overcast,10,2013-04-06 14:53:00
9:53 AM,37.9,35.1,89,29.86,10.0,North,4.6,-,N/A,,Overcast,10,2013-04-06 15:53:00
10:53 AM,39.0,35.1,86,29.86,10.0,NNE,3.5,-,N/A,,Overcast,20,2013-04-06 16:53:00
11:53 AM,39.9,35.1,83,29.86,10.0,West,3.5,-,N/A,,Overcast,280,2013-04-06 17:53:00
12:17 PM,41.0,35.6,81,29.81,10.0,West,3.5,-,N/A,,Overcast,280,2013-04-06 18:17:00
12:53 PM,42.1,36.0,79,29.85,10.0,Calm,Calm,-,N/A,,Overcast,0,2013-04-06 18:53:00
1:23 PM,44.6,35.6,71,29.81,10.0,Variable,4.6,-,N/A,,Overcast,0,2013-04-06 19:23:00
1:53 PM,44.1,35.1,71,29.84,10.0,WNW,4.6,-,N/A,,Overcast,300,2013-04-06 19:53:00
2:53 PM,48.0,36.0,63,29.82,10.0,Variable,4.6,-,N/A,,Overcast,0,2013-04-06 20:53:00
3:29 PM,46.4,35.6,66,29.78,10.0,North,4.6,-,N/A,,Scattered Clouds,360,2013-04-06 21:29:00
3:53 PM,48.9,35.1,59,29.81,10.0,Calm,Calm,-,N/A,,Partly Cloudy,0,2013-04-06 21:53:00
4:53 PM,48.9,35.1,59,29.80,10.0,Calm,Calm,-,N/A,,Clear,0,2013-04-06 22:53:00
5:53 PM,51.1,35.1,54,29.81,10.0,NE,4.6,-,N/A,,Partly Cloudy,40,2013-04-06 23:53:00
6:53 PM,48.9,36.0,61,29.81,10.0,NNE,5.8,-,N/A,,Mostly Cloudy,30,2013-04-07 00:53:00
7:53 PM,43.0,36.0,76,29.82,10.0,East,9.2,-,N/A,,Clear,80,2013-04-07 01:53:00
8:53 PM,39.0,35.1,86,29.83,10.0,East,12.7,-,N/A,,Clear,80,2013-04-07 02:53:00
9:53 PM,36.0,33.1,89,29.82,8.0,East,15.0,-,N/A,,Clear,90,2013-04-07 03:53:00
10:53 PM,37.0,33.1,86,29.82,7.0,ESE,15.0,-,N/A,,Mostly Cloudy,110,2013-04-07 04:53:00
11:53 PM,36.0,33.1,89,29.81,7.0,ESE,16.1,-,N/A,,Overcast,110,2013-04-07 05:53:00